RJA126 EDDF-OJAI

Flight info

Callsign RJA126
Flight time 3h 45m
Altitude 35000
Route CINDY8S/18 CINDY Z74 LAMPU DCT NOMBO Y161 MAH DCT LATLO DCT OBEDI DCT MOSAV DCT SOSEK/N0443F370 DCT NISVA N131 RODIP UN131 KULAR UT39 TOMBI DCT IDAKU L35 PIKOG L609 VOLFO N134 RALNA
Aircraft A320/M-SDE3FGHIRWY/LB1

Departure

Time 2026-05-06 13:43
Airport Frankfurt Main Airport (EDDF)

Arrival

Time 2026-05-06 17:28
Airport Queen Alia International Airport (OJAI)
Time Latitude Longitude Altitude Speed Heading
2026-05-06 12:44 50.05097 8.58849 379 ft 0 kts 340°
2026-05-06 13:23 50.05092 8.58851 378 ft 4 kts 340°
2026-05-06 13:24 50.05066 8.58866 378 ft 4 kts 340°
2026-05-06 13:24 50.05041 8.58880 378 ft 4 kts 340°
2026-05-06 13:24 50.05020 8.58894 378 ft 4 kts 317°
2026-05-06 13:24 50.05010 8.58926 378 ft 4 kts 260°
2026-05-06 13:25 50.05015 8.58955 378 ft 1 kts 250°
2026-05-06 13:25 50.05016 8.58959 378 ft 0 kts 250°
2026-05-06 13:29 50.05016 8.58958 378 ft 0 kts 250°
2026-05-06 13:32 50.05013 8.58947 378 ft 2 kts 250°
2026-05-06 13:32 50.05006 8.58916 378 ft 4 kts 249°
2026-05-06 13:32 50.04993 8.58865 378 ft 6 kts 250°
2026-05-06 13:33 50.04976 8.58792 378 ft 8 kts 250°
2026-05-06 13:33 50.04954 8.58701 378 ft 10 kts 250°
2026-05-06 13:33 50.04928 8.58589 378 ft 12 kts 250°
2026-05-06 13:33 50.04896 8.58459 378 ft 14 kts 249°
2026-05-06 13:34 50.04860 8.58309 378 ft 16 kts 249°
2026-05-06 13:34 50.04820 8.58141 378 ft 17 kts 249°
2026-05-06 13:34 50.04771 8.57984 378 ft 15 kts 229°
2026-05-06 13:34 50.04710 8.57888 378 ft 9 kts 230°
2026-05-06 13:35 50.04681 8.57793 378 ft 11 kts 250°
2026-05-06 13:35 50.04653 8.57676 378 ft 13 kts 250°
2026-05-06 13:35 50.04620 8.57538 378 ft 15 kts 249°
2026-05-06 13:35 50.04582 8.57382 378 ft 16 kts 249°
2026-05-06 13:36 50.04539 8.57208 378 ft 18 kts 250°
2026-05-06 13:36 50.04494 8.57015 378 ft 20 kts 249°
2026-05-06 13:36 50.04441 8.56798 378 ft 24 kts 251°
2026-05-06 13:36 50.04379 8.56539 378 ft 27 kts 249°
2026-05-06 13:37 50.04312 8.56260 378 ft 28 kts 249°
2026-05-06 13:37 50.04244 8.55969 378 ft 29 kts 250°
2026-05-06 13:37 50.04170 8.55665 378 ft 30 kts 251°
2026-05-06 13:37 50.04097 8.55350 378 ft 31 kts 250°
2026-05-06 13:38 50.04020 8.55028 378 ft 32 kts 248°
2026-05-06 13:38 50.03940 8.54696 378 ft 33 kts 251°
2026-05-06 13:38 50.03852 8.54360 378 ft 34 kts 238°
2026-05-06 13:38 50.03754 8.54034 378 ft 34 kts 249°
2026-05-06 13:39 50.03668 8.53690 378 ft 33 kts 248°
2026-05-06 13:39 50.03600 8.53412 378 ft 27 kts 251°
2026-05-06 13:39 50.03533 8.53132 378 ft 28 kts 251°
2026-05-06 13:39 50.03463 8.52847 378 ft 22 kts 247°
2026-05-06 13:40 50.03439 8.52756 378 ft 0 kts 249°
2026-05-06 13:40 50.03438 8.52750 378 ft 1 kts 249°
2026-05-06 13:40 50.03432 8.52726 378 ft 3 kts 249°
2026-05-06 13:40 50.03421 8.52681 378 ft 5 kts 248°
2026-05-06 13:41 50.03396 8.52624 378 ft 7 kts 224°
2026-05-06 13:41 50.03361 8.52594 378 ft 4 kts 179°
2026-05-06 13:41 50.03359 8.52594 378 ft 0 kts 179°
2026-05-06 13:42 50.03354 8.52594 378 ft 3 kts 179°
2026-05-06 13:42 50.03130 8.52590 378 ft 65 kts 178°
2026-05-06 13:42 50.02467 8.52602 379 ft 125 kts 179°
2026-05-06 13:43 50.01432 8.52617 389 ft 170 kts 183°
2026-05-06 13:43 50.00258 8.52616 916 ft 169 kts 183°
2026-05-06 13:43 49.99083 8.52619 1489 ft 172 kts 183°
2026-05-06 13:43 49.97864 8.52616 2087 ft 175 kts 183°
2026-05-06 13:44 49.96581 8.52613 2428 ft 193 kts 183°
2026-05-06 13:44 49.95202 8.52607 2812 ft 208 kts 183°
2026-05-06 13:44 49.93685 8.52594 3190 ft 224 kts 183°
2026-05-06 13:44 49.92084 8.52574 3602 ft 239 kts 183°
2026-05-06 13:45 49.90374 8.52544 4097 ft 253 kts 183°
2026-05-06 13:45 49.86709 8.52461 5015 ft 267 kts 183°
2026-05-06 13:45 49.84846 8.52415 5345 ft 268 kts 183°
2026-05-06 13:46 49.82979 8.52369 5868 ft 269 kts 183°
2026-05-06 13:46 49.81074 8.52375 6574 ft 272 kts 182°
2026-05-06 13:46 49.79161 8.52359 7274 ft 274 kts 182°
2026-05-06 13:46 49.77271 8.52334 7968 ft 276 kts 183°
2026-05-06 13:47 49.75320 8.52309 8685 ft 278 kts 183°
2026-05-06 13:47 49.73385 8.52289 9416 ft 277 kts 183°
2026-05-06 13:47 49.71454 8.52270 10112 ft 279 kts 183°
2026-05-06 13:47 49.69485 8.52247 10623 ft 287 kts 182°
2026-05-06 13:48 49.67446 8.52563 10855 ft 308 kts 166°
2026-05-06 13:48 49.65516 8.54167 11015 ft 331 kts 141°
2026-05-06 13:48 49.64488 8.55965 11171 ft 344 kts 128°
2026-05-06 13:48 49.63154 8.59277 11446 ft 359 kts 122°
2026-05-06 13:49 49.61894 8.62686 11866 ft 367 kts 122°
2026-05-06 13:49 49.60574 8.66121 12451 ft 368 kts 124°
2026-05-06 13:49 49.59189 8.69456 13005 ft 369 kts 126°
2026-05-06 13:49 49.57746 8.72752 13544 ft 371 kts 127°
2026-05-06 13:50 49.56229 8.76183 14080 ft 374 kts 127°
2026-05-06 13:50 49.54796 8.79464 14546 ft 377 kts 126°
2026-05-06 13:50 49.53343 8.82848 14979 ft 381 kts 126°
2026-05-06 13:50 49.51880 8.86283 15453 ft 384 kts 126°
2026-05-06 13:51 49.50366 8.89823 15938 ft 386 kts 126°
2026-05-06 13:51 49.48895 8.93231 16399 ft 388 kts 127°
2026-05-06 13:51 49.47568 8.96930 16834 ft 395 kts 114°
2026-05-06 13:51 49.46766 9.00984 17281 ft 399 kts 107°
2026-05-06 13:52 49.46137 9.05350 17728 ft 402 kts 104°
2026-05-06 13:52 49.45618 9.09480 18139 ft 405 kts 103°
2026-05-06 13:52 49.45098 9.13837 18552 ft 408 kts 103°
2026-05-06 13:52 49.44593 9.18155 18952 ft 410 kts 103°
2026-05-06 13:53 49.44055 9.22657 19358 ft 412 kts 105°
2026-05-06 13:53 49.43147 9.26676 19716 ft 409 kts 120°
2026-05-06 13:53 49.41585 9.30286 20094 ft 407 kts 130°
2026-05-06 13:53 49.39754 9.33718 20462 ft 409 kts 133°
2026-05-06 13:54 49.37909 9.37058 20821 ft 411 kts 133°
2026-05-06 13:54 49.36062 9.40471 21179 ft 414 kts 131°
2026-05-06 13:54 49.34290 9.43877 21511 ft 416 kts 130°
2026-05-06 13:54 49.32502 9.47411 21850 ft 418 kts 130°
2026-05-06 13:55 49.30689 9.51008 22217 ft 419 kts 130°
2026-05-06 13:55 49.28900 9.54513 22799 ft 414 kts 131°
2026-05-06 13:55 49.27008 9.58160 23479 ft 407 kts 131°
2026-05-06 13:55 49.25358 9.61311 23820 ft 408 kts 131°
2026-05-06 13:56 49.23528 9.64802 24185 ft 408 kts 131°
2026-05-06 13:56 49.21823 9.68077 24787 ft 401 kts 131°
2026-05-06 13:56 49.20103 9.71395 25435 ft 394 kts 132°
2026-05-06 13:56 49.18423 9.74639 26078 ft 385 kts 132°
2026-05-06 13:57 49.16769 9.77825 26615 ft 381 kts 133°
2026-05-06 13:57 49.15122 9.80978 26853 ft 385 kts 133°
2026-05-06 13:57 49.13405 9.84245 26852 ft 395 kts 133°
2026-05-06 13:57 49.11643 9.87584 26842 ft 404 kts 133°
2026-05-06 13:58 49.09806 9.91074 26837 ft 414 kts 133°
2026-05-06 13:58 49.07943 9.94628 26829 ft 423 kts 133°
2026-05-06 13:58 49.06111 9.98125 26820 ft 432 kts 133°
2026-05-06 13:58 49.04217 10.01740 26808 ft 438 kts 133°
2026-05-06 13:59 49.02287 10.05408 26805 ft 442 kts 133°
2026-05-06 13:59 49.00367 10.09044 26807 ft 446 kts 133°
2026-05-06 13:59 48.99021 10.11590 26803 ft 448 kts 133°
2026-05-06 13:59 48.97034 10.15343 26808 ft 448 kts 133°
2026-05-06 14:00 48.95076 10.19036 27000 ft 450 kts 133°
2026-05-06 14:00 48.93107 10.22748 27243 ft 451 kts 134°
2026-05-06 14:00 48.91137 10.26463 27475 ft 453 kts 134°
2026-05-06 14:00 48.89166 10.30167 27706 ft 454 kts 134°
2026-05-06 14:01 48.87160 10.33932 27937 ft 455 kts 134°
2026-05-06 14:01 48.85164 10.37672 28151 ft 457 kts 134°
2026-05-06 14:01 48.83065 10.41563 28442 ft 455 kts 136°
2026-05-06 14:01 48.80951 10.45089 28787 ft 451 kts 139°
2026-05-06 14:02 48.78660 10.48781 29061 ft 451 kts 139°
2026-05-06 14:02 48.76494 10.52218 29356 ft 450 kts 140°
2026-05-06 14:02 48.74278 10.55717 29663 ft 449 kts 140°
2026-05-06 14:02 48.72231 10.58961 29943 ft 448 kts 140°
2026-05-06 14:03 48.69998 10.62508 30246 ft 447 kts 140°
2026-05-06 14:03 48.67863 10.65920 30518 ft 447 kts 140°
2026-05-06 14:03 48.65726 10.69339 30765 ft 447 kts 140°
2026-05-06 14:03 48.63562 10.72786 30998 ft 447 kts 140°
2026-05-06 14:04 48.61388 10.76231 31265 ft 446 kts 141°
2026-05-06 14:04 48.59269 10.79579 31500 ft 446 kts 141°
2026-05-06 14:04 48.57125 10.82963 31718 ft 446 kts 141°
2026-05-06 14:04 48.54999 10.86361 31963 ft 446 kts 140°
2026-05-06 14:05 48.52889 10.89772 32167 ft 447 kts 140°
2026-05-06 14:05 48.50785 10.93169 32402 ft 446 kts 141°
2026-05-06 14:05 48.48626 10.96621 32637 ft 445 kts 141°
2026-05-06 14:05 48.46504 10.99949 32779 ft 444 kts 142°
2026-05-06 14:06 48.42166 11.06634 32777 ft 443 kts 142°
2026-05-06 14:06 48.38538 11.12248 32770 ft 443 kts 142°
2026-05-06 14:07 48.34257 11.18942 32766 ft 445 kts 141°
2026-05-06 14:07 48.29946 11.25615 32768 ft 444 kts 142°
2026-05-06 14:08 48.25790 11.32555 32761 ft 456 kts 132°
2026-05-06 14:08 48.22542 11.40917 32798 ft 464 kts 126°
2026-05-06 14:09 48.19497 11.49375 32791 ft 463 kts 127°
2026-05-06 14:09 48.16390 11.57514 32777 ft 461 kts 128°
2026-05-06 14:10 48.13035 11.66166 32734 ft 462 kts 128°
2026-05-06 14:10 48.10391 11.73119 32699 ft 463 kts 127°
2026-05-06 14:11 48.06656 11.82899 32697 ft 462 kts 128°
2026-05-06 14:11 48.03922 11.89971 32680 ft 463 kts 128°
2026-05-06 14:12 48.00699 11.98323 32680 ft 464 kts 128°
2026-05-06 14:12 47.97472 12.06657 32698 ft 463 kts 128°
2026-05-06 14:13 47.94243 12.14962 32707 ft 463 kts 128°
2026-05-06 14:13 47.90997 12.23290 32711 ft 463 kts 128°
2026-05-06 14:14 47.87666 12.31825 32709 ft 463 kts 128°
2026-05-06 14:14 47.84370 12.40233 32697 ft 463 kts 128°
2026-05-06 14:15 47.81104 12.48524 32677 ft 464 kts 128°
2026-05-06 14:15 47.77830 12.56807 32678 ft 464 kts 128°
2026-05-06 14:16 47.74543 12.65135 32685 ft 464 kts 128°
2026-05-06 14:16 47.71262 12.73404 32665 ft 465 kts 128°
2026-05-06 14:17 47.67814 12.81456 32679 ft 459 kts 134°
2026-05-06 14:17 47.64030 12.89125 32665 ft 460 kts 134°
2026-05-06 14:18 47.60261 12.97078 32666 ft 462 kts 133°
2026-05-06 14:18 47.56553 13.04879 32669 ft 462 kts 134°
2026-05-06 14:19 47.52806 13.12607 32686 ft 462 kts 134°
2026-05-06 14:19 47.49055 13.20338 32708 ft 462 kts 134°
2026-05-06 14:20 47.45313 13.28072 32690 ft 463 kts 134°
2026-05-06 14:20 47.41487 13.35948 32700 ft 463 kts 134°
2026-05-06 14:21 47.37662 13.43766 32715 ft 463 kts 134°
2026-05-06 14:21 47.33893 13.51486 32719 ft 464 kts 134°
2026-05-06 14:22 47.30755 13.57898 32723 ft 464 kts 134°
2026-05-06 14:22 47.26937 13.65654 32748 ft 464 kts 134°
2026-05-06 14:23 47.23169 13.73298 32755 ft 464 kts 134°
2026-05-06 14:23 47.19358 13.81029 32763 ft 464 kts 134°
2026-05-06 14:24 47.15539 13.88735 32794 ft 463 kts 134°
2026-05-06 14:24 47.11721 13.96400 32790 ft 464 kts 134°
2026-05-06 14:25 47.09809 14.00256 32593 ft 464 kts 134°
2026-05-06 14:25 47.07932 14.04030 32317 ft 464 kts 134°
2026-05-06 14:25 47.05992 14.07914 32016 ft 464 kts 133°
2026-05-06 14:25 47.04080 14.11735 31708 ft 464 kts 133°
2026-05-06 14:26 47.02164 14.15552 31361 ft 463 kts 133°
2026-05-06 14:26 47.00256 14.19357 31017 ft 463 kts 133°
2026-05-06 14:26 46.98337 14.23177 30860 ft 462 kts 133°
2026-05-06 14:26 46.96418 14.26990 30864 ft 463 kts 133°
2026-05-06 14:27 46.92591 14.34582 30869 ft 464 kts 133°
2026-05-06 14:27 46.88733 14.42222 30875 ft 465 kts 133°
2026-05-06 14:28 46.84873 14.49851 30876 ft 464 kts 133°
2026-05-06 14:28 46.81003 14.57457 30879 ft 464 kts 133°
2026-05-06 14:29 46.77145 14.65028 30844 ft 465 kts 133°
2026-05-06 14:29 46.73274 14.72604 30839 ft 465 kts 133°
2026-05-06 14:30 46.69406 14.80169 30850 ft 465 kts 133°
2026-05-06 14:30 46.65537 14.87697 30855 ft 465 kts 133°
2026-05-06 14:31 46.61653 14.95232 30850 ft 465 kts 133°
2026-05-06 14:31 46.57763 15.02766 30850 ft 466 kts 133°
2026-05-06 14:32 46.53859 15.10306 30848 ft 466 kts 133°
2026-05-06 14:32 46.49926 15.17887 30860 ft 467 kts 133°
2026-05-06 14:33 46.46015 15.25405 30878 ft 467 kts 133°
2026-05-06 14:33 46.42079 15.32947 30885 ft 468 kts 133°
2026-05-06 14:34 46.38151 15.40451 30891 ft 468 kts 133°
2026-05-06 14:34 46.34207 15.47950 30867 ft 469 kts 133°
2026-05-06 14:35 46.30250 15.55475 30909 ft 468 kts 133°
2026-05-06 14:35 46.26291 15.62977 30920 ft 468 kts 133°
2026-05-06 14:36 46.22351 15.70413 30884 ft 469 kts 133°
2026-05-06 14:36 46.18353 15.77958 30864 ft 470 kts 133°
2026-05-06 14:37 46.14390 15.85407 30861 ft 471 kts 133°
2026-05-06 14:37 46.10399 15.92895 30866 ft 471 kts 133°
2026-05-06 14:38 46.06402 16.00372 30907 ft 471 kts 133°
2026-05-06 14:38 46.02392 16.07852 30956 ft 470 kts 133°
2026-05-06 14:39 45.98400 16.15283 30948 ft 470 kts 133°
2026-05-06 14:39 45.94377 16.22738 30944 ft 470 kts 133°
2026-05-06 14:40 45.90374 16.30139 30935 ft 470 kts 133°
2026-05-06 14:40 45.86363 16.37562 30892 ft 470 kts 133°
2026-05-06 14:41 45.82342 16.44968 30861 ft 470 kts 133°
2026-05-06 14:41 45.78325 16.52310 30860 ft 470 kts 133°
2026-05-06 14:42 45.74271 16.59734 30906 ft 472 kts 133°
2026-05-06 14:42 45.72251 16.63435 31213 ft 470 kts 133°
2026-05-06 14:42 45.70182 16.67218 31483 ft 470 kts 133°
2026-05-06 14:43 45.68816 16.69708 31662 ft 470 kts 133°
2026-05-06 14:43 45.66744 16.73473 31942 ft 470 kts 133°
2026-05-06 14:43 45.64698 16.77183 32185 ft 470 kts 133°
2026-05-06 14:43 45.62598 16.80995 32467 ft 469 kts 133°
2026-05-06 14:44 45.60600 16.84623 32676 ft 470 kts 133°
2026-05-06 14:44 45.58547 16.88349 32919 ft 470 kts 133°
2026-05-06 14:44 45.56528 16.92021 33170 ft 470 kts 131°
2026-05-06 14:45 45.53006 16.99912 33624 ft 473 kts 124°
2026-05-06 14:45 45.51364 17.03989 33851 ft 473 kts 123°
2026-05-06 14:45 45.49740 17.08067 34072 ft 473 kts 124°
2026-05-06 14:45 45.48092 17.12123 34246 ft 473 kts 124°
2026-05-06 14:46 45.46413 17.16156 34462 ft 472 kts 125°
2026-05-06 14:46 45.44700 17.20217 34680 ft 472 kts 125°
2026-05-06 14:46 45.43038 17.24168 34895 ft 471 kts 125°
2026-05-06 14:47 45.39704 17.32189 34919 ft 471 kts 124°
2026-05-06 14:47 45.36295 17.40387 34915 ft 471 kts 124°
2026-05-06 14:48 45.32938 17.48379 34914 ft 471 kts 124°
2026-05-06 14:48 45.29573 17.56397 34914 ft 471 kts 124°
2026-05-06 14:49 45.26209 17.64383 34918 ft 471 kts 124°
2026-05-06 14:49 45.22816 17.72403 34947 ft 470 kts 124°
2026-05-06 14:50 45.19446 17.80359 34924 ft 471 kts 124°
2026-05-06 14:50 45.16065 17.88316 34898 ft 471 kts 124°
2026-05-06 14:51 45.12673 17.96269 34891 ft 470 kts 125°
2026-05-06 14:51 45.09290 18.04185 34869 ft 471 kts 124°
2026-05-06 14:52 45.05893 18.12119 34859 ft 471 kts 124°
2026-05-06 14:52 45.02488 18.20042 34862 ft 472 kts 124°
2026-05-06 14:53 44.99076 18.27951 34891 ft 472 kts 124°
2026-05-06 14:53 44.95650 18.35892 34911 ft 472 kts 124°
2026-05-06 14:54 44.92242 18.43747 34954 ft 471 kts 124°
2026-05-06 14:54 44.88818 18.51627 34943 ft 471 kts 124°
2026-05-06 14:55 44.85367 18.59560 34958 ft 471 kts 124°
2026-05-06 14:55 44.81947 18.67374 34929 ft 471 kts 124°
2026-05-06 14:56 44.78481 18.75277 34894 ft 471 kts 124°
2026-05-06 14:56 44.75047 18.83101 34864 ft 472 kts 124°
2026-05-06 14:57 44.71576 18.90989 34885 ft 471 kts 124°
2026-05-06 14:57 44.68126 18.98776 34866 ft 471 kts 124°
2026-05-06 14:58 44.64664 19.06591 34869 ft 472 kts 124°
2026-05-06 14:58 44.61188 19.14422 34868 ft 472 kts 124°
2026-05-06 14:59 44.57702 19.22245 34895 ft 472 kts 124°
2026-05-06 14:59 44.54225 19.30040 34931 ft 472 kts 124°
2026-05-06 15:00 44.50721 19.37848 34917 ft 473 kts 124°
2026-05-06 15:00 44.47235 19.45623 34958 ft 472 kts 124°
2026-05-06 15:01 44.43725 19.53425 34943 ft 472 kts 124°
2026-05-06 15:01 44.40218 19.61188 34904 ft 472 kts 124°
2026-05-06 15:02 44.37291 19.67638 34886 ft 472 kts 124°
2026-05-06 15:02 44.33774 19.75373 34896 ft 472 kts 124°
2026-05-06 15:03 44.30257 19.83118 34895 ft 472 kts 124°
2026-05-06 15:03 44.26734 19.90841 34891 ft 472 kts 124°
2026-05-06 15:04 44.23203 19.98560 34911 ft 472 kts 124°
2026-05-06 15:04 44.19677 20.06252 34948 ft 471 kts 124°
2026-05-06 15:05 44.16116 20.13993 34920 ft 471 kts 124°
2026-05-06 15:05 44.12564 20.21686 34899 ft 471 kts 124°
2026-05-06 15:06 44.09036 20.29323 34895 ft 471 kts 124°
2026-05-06 15:06 44.05477 20.36992 34900 ft 471 kts 124°
2026-05-06 15:07 44.01914 20.44659 34894 ft 472 kts 124°
2026-05-06 15:07 43.98244 20.52541 34894 ft 473 kts 124°
2026-05-06 15:08 43.96296 20.56719 34912 ft 473 kts 124°
2026-05-06 15:08 43.92722 20.64350 34960 ft 473 kts 124°
2026-05-06 15:09 43.89134 20.71989 34939 ft 473 kts 124°
2026-05-06 15:09 43.85539 20.79652 34940 ft 473 kts 124°
2026-05-06 15:10 43.81928 20.87295 34919 ft 474 kts 124°
2026-05-06 15:10 43.78317 20.94935 34906 ft 474 kts 123°
2026-05-06 15:11 43.74948 21.02722 34898 ft 475 kts 121°
2026-05-06 15:11 43.71561 21.10744 34895 ft 475 kts 121°
2026-05-06 15:12 43.68234 21.18526 34899 ft 475 kts 121°
2026-05-06 15:12 43.64854 21.26379 34904 ft 475 kts 121°
2026-05-06 15:13 43.61471 21.34256 34902 ft 476 kts 121°
2026-05-06 15:13 43.58051 21.42215 34904 ft 477 kts 121°
2026-05-06 15:14 43.54605 21.50179 34932 ft 477 kts 121°
2026-05-06 15:14 43.51173 21.58084 34958 ft 477 kts 121°
2026-05-06 15:15 43.47757 21.65945 34970 ft 477 kts 121°
2026-05-06 15:15 43.44327 21.73821 34981 ft 477 kts 121°
2026-05-06 15:16 43.40907 21.81634 34982 ft 477 kts 121°
2026-05-06 15:16 43.37477 21.89467 34980 ft 477 kts 121°
2026-05-06 15:17 43.34055 21.97276 34979 ft 477 kts 122°
2026-05-06 15:17 43.30597 22.05112 34964 ft 477 kts 121°
2026-05-06 15:18 43.27167 22.12868 34923 ft 477 kts 121°
2026-05-06 15:18 43.23705 22.20703 34902 ft 477 kts 121°
2026-05-06 15:19 43.20263 22.28448 34904 ft 478 kts 121°
2026-05-06 15:19 43.16795 22.36234 34909 ft 479 kts 121°
2026-05-06 15:20 43.13311 22.44040 34911 ft 480 kts 121°
2026-05-06 15:20 43.09818 22.51847 34930 ft 481 kts 121°
2026-05-06 15:21 43.06316 22.59639 34977 ft 481 kts 121°
2026-05-06 15:21 43.02810 22.67439 34994 ft 481 kts 121°
2026-05-06 15:22 42.99293 22.75233 35011 ft 481 kts 121°
2026-05-06 15:22 42.95235 22.82485 34971 ft 481 kts 135°
2026-05-06 15:23 42.90338 22.88711 34942 ft 482 kts 139°
2026-05-06 15:23 42.85360 22.94841 34938 ft 482 kts 137°
2026-05-06 15:24 42.80483 23.01146 34944 ft 483 kts 136°
2026-05-06 15:24 42.76340 23.06499 34949 ft 483 kts 137°
2026-05-06 15:25 42.71403 23.12713 34998 ft 483 kts 137°
2026-05-06 15:25 42.66391 23.19043 35003 ft 484 kts 137°
2026-05-06 15:26 42.61611 23.25108 34973 ft 485 kts 137°
2026-05-06 15:26 42.56603 23.31428 34993 ft 484 kts 137°
2026-05-06 15:27 42.51659 23.37643 34995 ft 484 kts 137°
2026-05-06 15:27 42.46713 23.43848 34982 ft 485 kts 137°
2026-05-06 15:28 42.41771 23.50044 34949 ft 486 kts 137°
2026-05-06 15:28 42.36787 23.56277 34970 ft 486 kts 137°
2026-05-06 15:29 42.31813 23.62476 34970 ft 486 kts 137°
2026-05-06 15:29 42.26828 23.68652 34974 ft 486 kts 137°
2026-05-06 15:30 42.21798 23.74737 34937 ft 487 kts 138°
2026-05-06 15:30 42.16712 23.80887 34956 ft 487 kts 138°
2026-05-06 15:31 42.11714 23.86966 34969 ft 487 kts 138°
2026-05-06 15:31 42.06677 23.93065 34977 ft 487 kts 138°
2026-05-06 15:32 41.99078 24.02224 34993 ft 487 kts 138°
2026-05-06 15:32 41.93928 24.08422 35007 ft 487 kts 138°
2026-05-06 15:33 41.88859 24.14517 35010 ft 487 kts 138°
2026-05-06 15:33 41.83821 24.20548 35019 ft 487 kts 138°
2026-05-06 15:34 41.78767 24.26591 35027 ft 487 kts 138°
2026-05-06 15:34 41.73747 24.32583 34998 ft 487 kts 138°
2026-05-06 15:35 41.68625 24.38667 34957 ft 488 kts 138°
2026-05-06 15:35 41.63551 24.44695 34953 ft 488 kts 138°
2026-05-06 15:36 41.58494 24.50693 34958 ft 488 kts 138°
2026-05-06 15:36 41.53420 24.56689 34964 ft 489 kts 138°
2026-05-06 15:37 41.48317 24.62713 34972 ft 490 kts 138°
2026-05-06 15:37 41.43200 24.68731 34991 ft 490 kts 138°
2026-05-06 15:38 41.38095 24.74751 35030 ft 490 kts 138°
2026-05-06 15:38 41.33003 24.80807 35053 ft 491 kts 137°
2026-05-06 15:39 41.27933 24.86804 35063 ft 491 kts 138°
2026-05-06 15:39 41.22815 24.92821 35025 ft 492 kts 138°
2026-05-06 15:40 41.17751 24.98777 34996 ft 492 kts 138°
2026-05-06 15:40 41.12599 25.04830 35009 ft 492 kts 138°
2026-05-06 15:41 41.07440 25.10878 35000 ft 492 kts 138°
2026-05-06 15:41 41.03053 25.16000 35000 ft 492 kts 138°
2026-05-06 15:42 40.97882 25.22029 35007 ft 493 kts 138°
2026-05-06 15:42 40.91860 25.29036 35041 ft 493 kts 138°
2026-05-06 15:43 40.87549 25.34041 35060 ft 493 kts 138°
2026-05-06 15:43 40.82389 25.40022 35054 ft 493 kts 138°
2026-05-06 15:44 40.77467 25.46242 35030 ft 493 kts 130°
2026-05-06 15:44 40.72969 25.53149 35036 ft 493 kts 129°
2026-05-06 15:45 40.68583 25.60014 35042 ft 493 kts 129°
2026-05-06 15:45 40.64057 25.66886 35047 ft 493 kts 130°
2026-05-06 15:46 40.59594 25.73657 35059 ft 493 kts 129°
2026-05-06 15:46 40.55112 25.80504 35048 ft 493 kts 129°
2026-05-06 15:47 40.50616 25.87343 35026 ft 494 kts 129°
2026-05-06 15:47 40.46108 25.94150 35042 ft 494 kts 130°
2026-05-06 15:48 40.41549 26.00913 35047 ft 494 kts 130°
2026-05-06 15:48 40.37010 26.07670 35058 ft 494 kts 130°
2026-05-06 15:49 40.32484 26.14448 35063 ft 494 kts 130°
2026-05-06 15:49 40.27936 26.21203 35069 ft 494 kts 130°
2026-05-06 15:50 40.23382 26.27917 35075 ft 494 kts 130°
2026-05-06 15:50 40.18826 26.34665 35081 ft 494 kts 130°
2026-05-06 15:51 40.14269 26.41397 35087 ft 494 kts 130°
2026-05-06 15:51 40.09448 26.47813 35093 ft 494 kts 135°
2026-05-06 15:52 40.04539 26.54056 35095 ft 494 kts 135°
2026-05-06 15:52 39.99636 26.60345 35097 ft 494 kts 134°
2026-05-06 15:53 39.94726 26.66662 35073 ft 495 kts 135°
2026-05-06 15:53 39.89795 26.72946 35035 ft 496 kts 135°
2026-05-06 15:54 39.84850 26.79229 35041 ft 497 kts 135°
2026-05-06 15:54 39.79914 26.85522 35043 ft 497 kts 135°
2026-05-06 15:55 39.74988 26.91794 35042 ft 498 kts 135°
2026-05-06 15:55 39.69936 26.97962 35067 ft 498 kts 136°
2026-05-06 15:56 39.64830 27.04136 35079 ft 498 kts 136°
2026-05-06 15:56 39.59827 27.10299 35049 ft 499 kts 136°
2026-05-06 15:57 39.54762 27.16474 35080 ft 499 kts 136°
2026-05-06 15:57 39.49746 27.22681 35082 ft 499 kts 131°
2026-05-06 15:58 39.45272 27.29533 35084 ft 498 kts 127°
2026-05-06 15:58 39.40919 27.36517 35090 ft 498 kts 128°
2026-05-06 15:59 39.36488 27.43432 35086 ft 498 kts 128°
2026-05-06 15:59 39.32023 27.50312 35047 ft 499 kts 128°
2026-05-06 16:00 39.27581 27.57233 35026 ft 500 kts 128°
2026-05-06 16:00 39.23145 27.64157 35032 ft 500 kts 128°
2026-05-06 16:01 39.18693 27.71051 35041 ft 500 kts 128°
2026-05-06 16:01 39.14226 27.77937 35049 ft 500 kts 128°
2026-05-06 16:02 39.09790 27.84791 35046 ft 501 kts 128°
2026-05-06 16:02 39.05317 27.91675 35025 ft 501 kts 128°
2026-05-06 16:03 39.00848 27.98537 35014 ft 502 kts 128°
2026-05-06 16:03 38.96350 28.05431 35029 ft 503 kts 128°
2026-05-06 16:04 38.91854 28.12300 35079 ft 502 kts 128°
2026-05-06 16:04 38.87349 28.19165 35080 ft 503 kts 128°
2026-05-06 16:05 38.82839 28.26036 35097 ft 503 kts 128°
2026-05-06 16:05 38.78327 28.32902 35096 ft 503 kts 129°
2026-05-06 16:06 38.73807 28.39749 35057 ft 504 kts 129°
2026-05-06 16:06 38.69319 28.46540 35035 ft 504 kts 129°
2026-05-06 16:07 38.64763 28.53409 35040 ft 504 kts 129°
2026-05-06 16:07 38.60231 28.60229 35072 ft 503 kts 129°
2026-05-06 16:08 38.55073 28.66254 35055 ft 504 kts 144°
2026-05-06 16:08 38.49288 28.71327 35049 ft 504 kts 147°
2026-05-06 16:09 38.43484 28.76365 35075 ft 504 kts 145°
2026-05-06 16:09 38.37786 28.81552 35128 ft 503 kts 144°
2026-05-06 16:10 38.32066 28.86689 35112 ft 503 kts 146°
2026-05-06 16:10 38.26310 28.91745 35143 ft 502 kts 146°
2026-05-06 16:11 38.20593 28.96819 35136 ft 501 kts 145°
2026-05-06 16:11 38.14885 29.01905 35141 ft 500 kts 145°
2026-05-06 16:12 38.09171 29.06946 35127 ft 499 kts 146°
2026-05-06 16:12 38.03473 29.11972 35087 ft 499 kts 146°
2026-05-06 16:13 37.97775 29.16994 35050 ft 499 kts 146°
2026-05-06 16:13 37.92071 29.22007 35065 ft 498 kts 146°
2026-05-06 16:14 37.86366 29.27008 35067 ft 499 kts 146°
2026-05-06 16:14 37.80690 29.31995 35078 ft 499 kts 146°
2026-05-06 16:15 37.74939 29.37010 35138 ft 499 kts 146°
2026-05-06 16:15 37.69234 29.41992 35155 ft 498 kts 146°
2026-05-06 16:16 37.63560 29.46937 35156 ft 497 kts 146°
2026-05-06 16:16 37.57875 29.51894 35120 ft 497 kts 146°
2026-05-06 16:17 37.52130 29.56868 35080 ft 497 kts 146°
2026-05-06 16:17 37.46429 29.61809 35067 ft 497 kts 146°
2026-05-06 16:18 37.41691 29.65913 35062 ft 497 kts 146°
2026-05-06 16:18 37.35981 29.70844 35066 ft 497 kts 147°
2026-05-06 16:19 37.30153 29.75848 35065 ft 498 kts 147°
2026-05-06 16:19 37.24464 29.80764 35081 ft 498 kts 147°
2026-05-06 16:20 37.18746 29.85684 35059 ft 499 kts 147°
2026-05-06 16:20 37.13012 29.90600 35104 ft 498 kts 147°
2026-05-06 16:21 37.07266 29.95534 35097 ft 499 kts 147°
2026-05-06 16:21 37.01526 30.00448 35058 ft 500 kts 147°
2026-05-06 16:22 36.95770 30.05362 35059 ft 501 kts 148°
2026-05-06 16:22 36.90015 30.10272 35116 ft 500 kts 148°
2026-05-06 16:23 36.84261 30.15178 35133 ft 500 kts 148°
2026-05-06 16:23 36.78515 30.20062 35126 ft 500 kts 148°
2026-05-06 16:24 36.72762 30.24923 35087 ft 500 kts 148°
2026-05-06 16:24 36.66952 30.29827 35046 ft 500 kts 148°
2026-05-06 16:25 36.61196 30.34692 35038 ft 500 kts 149°
2026-05-06 16:25 36.55421 30.39539 35043 ft 501 kts 149°
2026-05-06 16:26 36.49648 30.44395 35038 ft 502 kts 149°
2026-05-06 16:26 36.43861 30.49264 35042 ft 503 kts 149°
2026-05-06 16:27 36.38054 30.54121 35044 ft 504 kts 149°
2026-05-06 16:27 36.32229 30.58993 35096 ft 504 kts 149°
2026-05-06 16:28 36.26417 30.63836 35133 ft 504 kts 149°
2026-05-06 16:28 36.20584 30.68678 35134 ft 503 kts 149°
2026-05-06 16:29 36.14791 30.73523 35125 ft 501 kts 149°
2026-05-06 16:29 36.09049 30.78287 35109 ft 500 kts 149°
2026-05-06 16:30 36.04231 30.82308 35074 ft 500 kts 147°
2026-05-06 16:30 35.97820 30.88529 35039 ft 501 kts 144°
2026-05-06 16:31 35.92401 30.93944 35041 ft 501 kts 144°
2026-05-06 16:31 35.86952 30.99306 35040 ft 501 kts 144°
2026-05-06 16:32 35.81498 31.04656 35091 ft 501 kts 144°
2026-05-06 16:32 35.76054 31.09996 35128 ft 500 kts 144°
2026-05-06 16:33 35.70618 31.15339 35131 ft 498 kts 144°
2026-05-06 16:34 35.62528 31.23238 35121 ft 495 kts 144°
2026-05-06 16:34 35.57124 31.28502 35083 ft 493 kts 144°
2026-05-06 16:35 35.51734 31.33763 35043 ft 492 kts 144°
2026-05-06 16:35 35.46370 31.38974 35041 ft 492 kts 145°
2026-05-06 16:36 35.40998 31.44175 35038 ft 492 kts 144°
2026-05-06 16:36 35.35615 31.49398 35042 ft 493 kts 144°
2026-05-06 16:37 35.30181 31.54643 35038 ft 494 kts 145°
2026-05-06 16:37 35.24778 31.59864 35041 ft 495 kts 144°
2026-05-06 16:38 35.19355 31.65094 35040 ft 497 kts 145°
2026-05-06 16:38 35.13881 31.70353 35073 ft 497 kts 145°
2026-05-06 16:39 35.08464 31.75549 35128 ft 497 kts 145°
2026-05-06 16:39 35.03000 31.80788 35126 ft 497 kts 145°
2026-05-06 16:40 34.97555 31.85995 35126 ft 497 kts 145°
2026-05-06 16:40 34.92110 31.91211 35099 ft 497 kts 145°
2026-05-06 16:41 34.86654 31.96399 35059 ft 498 kts 145°
2026-05-06 16:41 34.81197 32.01587 35042 ft 498 kts 146°
2026-05-06 16:42 34.75728 32.06805 35051 ft 498 kts 146°
2026-05-06 16:42 34.70297 32.11938 35102 ft 497 kts 146°
2026-05-06 16:43 34.64793 32.17128 35124 ft 497 kts 146°
2026-05-06 16:43 34.60224 32.21468 35095 ft 497 kts 146°
2026-05-06 16:44 34.54780 32.26618 35055 ft 498 kts 146°
2026-05-06 16:44 34.49307 32.31757 35040 ft 498 kts 146°
2026-05-06 16:45 34.43766 32.36983 35039 ft 498 kts 146°
2026-05-06 16:45 34.38285 32.42126 35056 ft 498 kts 146°
2026-05-06 16:46 34.32801 32.47258 35053 ft 499 kts 146°
2026-05-06 16:46 34.27307 32.52415 35052 ft 499 kts 146°
2026-05-06 16:47 34.21802 32.57554 35102 ft 498 kts 146°
2026-05-06 16:47 34.16320 32.62673 35127 ft 498 kts 146°
2026-05-06 16:48 34.10834 32.67786 35129 ft 497 kts 147°
2026-05-06 16:48 34.05167 32.72477 35129 ft 492 kts 153°
2026-05-06 16:49 33.99331 32.76791 35090 ft 491 kts 154°
2026-05-06 16:49 33.93495 32.81092 35054 ft 491 kts 153°
2026-05-06 16:50 33.87690 32.85432 35082 ft 490 kts 153°
2026-05-06 16:50 33.81892 32.89743 35053 ft 489 kts 153°
2026-05-06 16:51 33.76095 32.94032 35040 ft 489 kts 153°
2026-05-06 16:51 33.70285 32.98325 35050 ft 489 kts 153°
2026-05-06 16:52 33.64498 33.02617 35088 ft 488 kts 153°
2026-05-06 16:52 33.58714 33.06876 35134 ft 487 kts 154°
2026-05-06 16:53 33.52935 33.11122 35134 ft 487 kts 154°
2026-05-06 16:53 33.47170 33.15369 35135 ft 486 kts 154°
2026-05-06 16:54 33.41407 33.19609 35128 ft 485 kts 154°
2026-05-06 16:54 33.35673 33.23802 35137 ft 484 kts 154°
2026-05-06 16:55 33.29905 33.28023 35110 ft 484 kts 154°
2026-05-06 16:55 33.24159 33.32224 35070 ft 483 kts 154°
2026-05-06 16:56 33.18414 33.36411 35050 ft 483 kts 154°
2026-05-06 16:56 33.12643 33.40617 35050 ft 483 kts 154°
2026-05-06 16:57 33.06904 33.44798 35049 ft 482 kts 154°
2026-05-06 16:57 33.01170 33.48954 35069 ft 482 kts 154°
2026-05-06 16:58 32.95321 33.53177 35070 ft 482 kts 154°
2026-05-06 16:58 32.89623 33.57301 35068 ft 482 kts 154°
2026-05-06 16:59 32.83921 33.61462 34743 ft 480 kts 152°
2026-05-06 16:59 32.81276 33.63929 34434 ft 487 kts 142°
2026-05-06 16:59 32.78854 33.66779 34199 ft 490 kts 138°
2026-05-06 16:59 32.76515 33.69723 33955 ft 491 kts 137°
2026-05-06 17:00 32.74191 33.72714 33699 ft 491 kts 137°
2026-05-06 17:00 32.71892 33.75645 33229 ft 492 kts 137°
2026-05-06 17:00 32.69515 33.78592 32577 ft 492 kts 139°
2026-05-06 17:00 32.67111 33.81497 31880 ft 494 kts 139°
2026-05-06 17:01 32.64690 33.84406 31188 ft 496 kts 139°
2026-05-06 17:01 32.62280 33.87341 30545 ft 496 kts 138°
2026-05-06 17:01 32.59896 33.90288 29884 ft 496 kts 138°
2026-05-06 17:01 32.57510 33.93248 29221 ft 495 kts 138°
2026-05-06 17:02 32.55124 33.96192 28563 ft 494 kts 138°
2026-05-06 17:02 32.52752 33.99133 27937 ft 493 kts 138°
2026-05-06 17:02 32.50395 34.02073 27288 ft 491 kts 138°
2026-05-06 17:02 32.48052 34.05004 26628 ft 488 kts 138°
2026-05-06 17:03 32.45744 34.07905 25999 ft 483 kts 138°
2026-05-06 17:03 32.43321 34.10713 25358 ft 473 kts 146°
2026-05-06 17:03 32.40689 34.12863 24761 ft 459 kts 157°
2026-05-06 17:03 32.37877 34.14593 24165 ft 453 kts 158°
2026-05-06 17:04 32.35223 34.16622 23556 ft 457 kts 148°
2026-05-06 17:04 32.32920 34.19226 22964 ft 461 kts 134°
2026-05-06 17:04 32.31155 34.22404 22360 ft 464 kts 121°
2026-05-06 17:04 32.29756 34.25839 21761 ft 462 kts 117°
2026-05-06 17:05 32.28429 34.29284 21149 ft 458 kts 117°
2026-05-06 17:05 32.27078 34.32677 20547 ft 454 kts 118°
2026-05-06 17:05 32.25674 34.35997 19977 ft 449 kts 120°
2026-05-06 17:05 32.24241 34.39264 19362 ft 445 kts 120°
2026-05-06 17:06 32.22821 34.42491 18764 ft 442 kts 119°
2026-05-06 17:06 32.21429 34.45713 18193 ft 437 kts 119°
2026-05-06 17:06 32.20065 34.48905 17630 ft 433 kts 118°
2026-05-06 17:06 32.19153 34.51049 17225 ft 430 kts 118°
2026-05-06 17:07 32.17391 34.55199 16490 ft 424 kts 118°
2026-05-06 17:07 32.16606 34.57305 16227 ft 419 kts 111°
2026-05-06 17:07 32.15663 34.61695 15771 ft 406 kts 102°
2026-05-06 17:07 32.15149 34.64940 15365 ft 400 kts 100°
2026-05-06 17:08 32.14677 34.68153 15117 ft 395 kts 100°
2026-05-06 17:08 32.14196 34.71338 15091 ft 394 kts 101°
2026-05-06 17:08 32.13846 34.73521 15090 ft 395 kts 101°
2026-05-06 17:08 32.13302 34.76752 15088 ft 394 kts 102°
2026-05-06 17:09 32.12746 34.79979 15098 ft 394 kts 102°
2026-05-06 17:09 32.12204 34.83150 15090 ft 394 kts 102°
2026-05-06 17:09 32.11682 34.86279 15088 ft 394 kts 102°
2026-05-06 17:09 32.11138 34.89503 15091 ft 394 kts 103°
2026-05-06 17:10 32.10400 34.92562 15093 ft 394 kts 108°
2026-05-06 17:10 32.09518 34.95714 15091 ft 393 kts 110°
2026-05-06 17:10 32.08613 34.98764 15090 ft 393 kts 111°
2026-05-06 17:10 32.07705 35.01798 15089 ft 393 kts 110°
2026-05-06 17:11 32.06809 35.04849 15088 ft 393 kts 110°
2026-05-06 17:11 32.05930 35.07908 15089 ft 394 kts 110°
2026-05-06 17:11 32.05055 35.10973 15087 ft 394 kts 110°
2026-05-06 17:11 32.04194 35.14012 15087 ft 394 kts 110°
2026-05-06 17:12 32.03313 35.17098 14985 ft 394 kts 110°
2026-05-06 17:12 32.02430 35.20147 14577 ft 391 kts 110°
2026-05-06 17:12 32.01547 35.23157 14134 ft 386 kts 110°
2026-05-06 17:12 32.00677 35.26100 13692 ft 383 kts 110°
2026-05-06 17:13 31.99811 35.29056 13240 ft 380 kts 110°
2026-05-06 17:13 31.98963 35.32021 12842 ft 377 kts 110°
2026-05-06 17:13 31.98146 35.34912 12470 ft 374 kts 110°
2026-05-06 17:13 31.97310 35.37840 12092 ft 371 kts 110°
2026-05-06 17:14 31.96495 35.40662 11718 ft 368 kts 110°
2026-05-06 17:14 31.95677 35.43489 11336 ft 363 kts 110°
2026-05-06 17:14 31.94862 35.46296 11156 ft 360 kts 110°
2026-05-06 17:14 31.94054 35.49085 11129 ft 360 kts 110°
2026-05-06 17:15 31.93352 35.51927 11163 ft 362 kts 101°
2026-05-06 17:15 31.92961 35.54845 11262 ft 362 kts 104°
2026-05-06 17:15 31.92140 35.57641 11433 ft 362 kts 115°
2026-05-06 17:15 31.91079 35.60333 11674 ft 364 kts 118°
2026-05-06 17:16 31.89950 35.63010 11808 ft 365 kts 118°
2026-05-06 17:16 31.88823 35.65738 11682 ft 366 kts 117°
2026-05-06 17:16 31.87762 35.68453 11283 ft 363 kts 116°
2026-05-06 17:16 31.86750 35.71159 10793 ft 359 kts 115°
2026-05-06 17:17 31.85756 35.73844 10311 ft 355 kts 115°
2026-05-06 17:17 31.84764 35.76483 9862 ft 350 kts 115°
2026-05-06 17:17 31.83806 35.79038 9670 ft 338 kts 113°
2026-05-06 17:17 31.83025 35.81593 9495 ft 327 kts 107°
2026-05-06 17:18 31.82694 35.84179 9307 ft 317 kts 88°
2026-05-06 17:18 31.83004 35.86732 9155 ft 307 kts 79°
2026-05-06 17:18 31.83392 35.89126 9023 ft 298 kts 79°
2026-05-06 17:18 31.83777 35.91497 9021 ft 293 kts 79°
2026-05-06 17:19 31.84159 35.93851 9025 ft 293 kts 79°
2026-05-06 17:19 31.84471 35.96224 8937 ft 293 kts 83°
2026-05-06 17:19 31.84706 35.98590 8696 ft 291 kts 84°
2026-05-06 17:19 31.84917 36.00962 8462 ft 290 kts 84°
2026-05-06 17:20 31.85120 36.03320 8285 ft 290 kts 84°
2026-05-06 17:20 31.85320 36.05673 8110 ft 289 kts 84°
2026-05-06 17:20 31.85519 36.08057 7884 ft 288 kts 84°
2026-05-06 17:20 31.85713 36.10391 7516 ft 289 kts 84°
2026-05-06 17:21 31.85905 36.12764 7147 ft 289 kts 84°
2026-05-06 17:21 31.86089 36.15095 6894 ft 284 kts 84°
2026-05-06 17:21 31.86267 36.17390 6601 ft 277 kts 84°
2026-05-06 17:21 31.86431 36.19603 6321 ft 268 kts 86°
2026-05-06 17:22 31.86183 36.21724 6014 ft 260 kts 114°
2026-05-06 17:22 31.85107 36.23343 5752 ft 249 kts 146°
2026-05-06 17:22 31.83543 36.24096 5514 ft 242 kts 173°
2026-05-06 17:22 31.81886 36.24087 5339 ft 235 kts 187°
2026-05-06 17:23 31.80287 36.23877 5330 ft 230 kts 187°
2026-05-06 17:23 31.78706 36.23703 5329 ft 231 kts 186°
2026-05-06 17:23 31.77086 36.23524 5324 ft 229 kts 187°
2026-05-06 17:23 31.75532 36.23257 5308 ft 224 kts 201°
2026-05-06 17:24 31.74295 36.22223 5308 ft 219 kts 236°
2026-05-06 17:24 31.73840 36.20623 5305 ft 202 kts 272°
2026-05-06 17:24 31.73973 36.19009 5226 ft 196 kts 277°
2026-05-06 17:24 31.74071 36.17418 4999 ft 195 kts 270°
2026-05-06 17:25 31.73969 36.15841 4784 ft 192 kts 263°
2026-05-06 17:25 31.73771 36.14307 4533 ft 189 kts 262°
2026-05-06 17:25 31.73551 36.12806 4278 ft 182 kts 261°
2026-05-06 17:25 31.73344 36.11390 4046 ft 170 kts 262°
2026-05-06 17:26 31.73160 36.10094 3825 ft 155 kts 261°
2026-05-06 17:26 31.72988 36.08900 3615 ft 142 kts 262°
2026-05-06 17:26 31.72828 36.07774 3451 ft 140 kts 261°
2026-05-06 17:26 31.72665 36.06642 3240 ft 139 kts 262°
2026-05-06 17:27 31.72497 36.05518 3041 ft 140 kts 261°
2026-05-06 17:27 31.72331 36.04411 2862 ft 138 kts 262°
2026-05-06 17:27 31.72178 36.03293 2692 ft 139 kts 262°
2026-05-06 17:27 31.72020 36.02165 2518 ft 141 kts 262°
2026-05-06 17:28 31.71864 36.01049 2412 ft 132 kts 261°
2026-05-06 17:28 31.71739 36.00193 2411 ft 81 kts 262°
2026-05-06 17:28 31.71677 35.99735 2411 ft 41 kts 262°
2026-05-06 17:28 31.71671 35.99405 2411 ft 39 kts 286°
2026-05-06 17:29 31.71740 35.99176 2411 ft 26 kts 290°
2026-05-06 17:29 31.71784 35.99032 2411 ft 9 kts 289°
2026-05-06 17:29 31.71801 35.98975 2411 ft 8 kts 289°
2026-05-06 17:29 31.71826 35.98925 2411 ft 7 kts 332°
2026-05-06 17:30 31.71857 35.98919 2411 ft 6 kts 352°
2026-05-06 17:30 31.71906 35.98911 2411 ft 8 kts 351°
2026-05-06 17:30 31.71969 35.98899 2411 ft 6 kts 351°
2026-05-06 17:30 31.71991 35.98912 2411 ft 5 kts 59°
2026-05-06 17:31 31.72000 35.98955 2411 ft 6 kts 81°
2026-05-06 17:31 31.72005 35.98997 2411 ft 4 kts 90°
2026-05-06 17:31 31.71988 35.99011 2411 ft 4 kts 178°
2026-05-06 17:31 31.71974 35.99013 2411 ft 3 kts 172°
2026-05-06 17:32 31.71952 35.99017 2411 ft 0 kts 170°
2026-05-06 17:32 31.71946 35.99018 2411 ft 2 kts 171°
2026-05-06 17:32 31.71943 35.99019 2411 ft 0 kts 171°